When you browse on this site, cookies collect data to enhance your experience and personalize the content and advertising you see.
Visit our Privacy Policy to learn more. By continuing to use the site, you agree to this use of cookies and data.
  • In Spain
  • List of Countries
  • For 7 days
  • Water Temperature
  • Weather Map
  • Weather Widgets
  • user-avatar
    Login

    Hourly Weather El Guna

    Today, 29 May, Friday

    Time Temperature Precipitation Wind Pressure Humidity
    00:00 +23°C° 0 mm 5 mps 733 mmHg 30%
    01:00 +23°C° 0 mm 5 mps 733 mmHg 34%
    02:00 +22°C° 0 mm 5 mps 733 mmHg 38%
    03:00 +22°C° 0 mm 5 mps 733 mmHg 41%
    04:00 +21°C° 0 mm 5 mps 733 mmHg 45%
    05:00 +21°C° 0 mm 5 mps 733 mmHg 49%
    06:00 +22°C° 0 mm 6 mps 734 mmHg 44%
    07:00 +23°C° 0 mm 7 mps 734 mmHg 40%
    08:00 +26°C° 0 mm 8 mps 735 mmHg 35%
    09:00 +27°C° 0 mm 8 mps 734 mmHg 31%
    10:00 +29°C° 0 mm 8 mps 734 mmHg 26%
    11:00 +31°C° 0 mm 8 mps 734 mmHg 21%
    12:00 +32°C° 0 mm 8 mps 734 mmHg 19%
    13:00 +33°C° 0 mm 8 mps 734 mmHg 16%
    14:00 +34°C° 0 mm 8 mps 733 mmHg 12%
    15:00 +33°C° 0 mm 8 mps 733 mmHg 12%
    16:00 +33°C° 0 mm 8 mps 733 mmHg 11%
    17:00 +32°C° 0 mm 8 mps 733 mmHg 10%
    18:00 +29°C° 0 mm 7 mps 733 mmHg 12%
    19:00 +27°C° 0 mm 5 mps 733 mmHg 14%
    20:00 +23°C° 0 mm 4 mps 733 mmHg 16%
    21:00 +23°C° 0 mm 4 mps 733 mmHg 19%
    22:00 +23°C° 0 mm 5 mps 733 mmHg 23%
    23:00 +22°C° 0 mm 5 mps 733 mmHg 26%

    Tomorrow, 30 May, Saturday

    Time Temperature Precipitation Wind Pressure Humidity
    00:00 +22°C° 0 mm 5 mps 733 mmHg 30%
    01:00 +21°C° 0 mm 5 mps 733 mmHg 34%
    02:00 +20°C° 0 mm 4 mps 732 mmHg 39%
    03:00 +20°C° 0 mm 4 mps 732 mmHg 41%
    04:00 +19°C° 0 mm 4 mps 732 mmHg 43%
    05:00 +19°C° 0 mm 4 mps 733 mmHg 45%
    06:00 +21°C° 0 mm 5 mps 733 mmHg 38%
    07:00 +23°C° 0 mm 5 mps 733 mmHg 31%
    08:00 +24°C° 0 mm 6 mps 733 mmHg 23%
    09:00 +27°C° 0 mm 6 mps 734 mmHg 19%
    10:00 +29°C° 0 mm 6 mps 734 mmHg 15%
    11:00 +32°C° 0 mm 6 mps 734 mmHg 11%
    12:00 +33°C° 0 mm 6 mps 733 mmHg 11%
    13:00 +34°C° 0 mm 7 mps 733 mmHg 10%
    14:00 +35°C° 0 mm 7 mps 732 mmHg 9%
    15:00 +34°C° 0 mm 7 mps 732 mmHg 9%
    16:00 +34°C° 0 mm 7 mps 732 mmHg 10%
    17:00 +33°C° 0 mm 7 mps 732 mmHg 10%
    18:00 +30°C° 0 mm 6 mps 732 mmHg 13%
    19:00 +28°C° 0 mm 5 mps 732 mmHg 15%
    20:00 +25°C° 0 mm 4 mps 732 mmHg 18%
    21:00 +25°C° 0 mm 4 mps 732 mmHg 20%
    22:00 +23°C° 0 mm 4 mps 732 mmHg 23%
    23:00 +23°C° 0 mm 4 mps 732 mmHg 25%

    Day after tomorrow, 31 May, Sunday

    Time Temperature Precipitation Wind Pressure Humidity
    00:00 +22°C° 0 mm 4 mps 732 mmHg 26%
    01:00 +22°C° 0 mm 4 mps 732 mmHg 28%
    02:00 +21°C° 0 mm 4 mps 732 mmHg 29%
    03:00 +21°C° 0 mm 4 mps 732 mmHg 27%
    04:00 +20°C° 0 mm 3 mps 732 mmHg 24%
    05:00 +20°C° 0 mm 3 mps 732 mmHg 22%
    06:00 +23°C° 0 mm 4 mps 732 mmHg 18%
    07:00 +26°C° 0 mm 4 mps 732 mmHg 13%
    08:00 +29°C° 0 mm 5 mps 733 mmHg 9%
    09:00 +30°C° 0 mm 5 mps 732 mmHg 8%
    10:00 +33°C° 0 mm 5 mps 732 mmHg 7%
    11:00 +35°C° 0 mm 6 mps 732 mmHg 6%
    12:00 +36°C° 0 mm 6 mps 732 mmHg 7%
    13:00 +38°C° 0 mm 6 mps 731 mmHg 7%
    14:00 +38°C° 0 mm 7 mps 731 mmHg 7%
    15:00 +38°C° 0 mm 7 mps 731 mmHg 8%
    16:00 +36°C° 0 mm 7 mps 730 mmHg 9%
    17:00 +35°C° 0 mm 7 mps 730 mmHg 9%
    18:00 +33°C° 0 mm 6 mps 730 mmHg 12%
    19:00 +30°C° 0 mm 5 mps 731 mmHg 15%
    20:00 +27°C° 0 mm 4 mps 731 mmHg 18%
    21:00 +27°C° 0 mm 4 mps 731 mmHg 20%
    22:00 +26°C° 0 mm 4 mps 731 mmHg 21%
    23:00 +26°C° 0 mm 4 mps 731 mmHg 23%

    1 June, Monday

    Time Temperature Precipitation Wind Pressure Humidity
    00:00 +26°C° 0 mm 4 mps 731 mmHg 20%
    01:00 +25°C° 0 mm 4 mps 730 mmHg 17%
    02:00 +25°C° 0 mm 4 mps 730 mmHg 13%
    03:00 +25°C° 0 mm 4 mps 730 mmHg 12%
    04:00 +25°C° 0 mm 4 mps 731 mmHg 11%
    05:00 +25°C° 0 mm 4 mps 731 mmHg 11%
    06:00 +27°C° 0 mm 5 mps 731 mmHg 12%
    07:00 +30°C° 0 mm 5 mps 731 mmHg 14%
    08:00 +33°C° 0 mm 6 mps 731 mmHg 16%
    09:00 +35°C° 0 mm 6 mps 731 mmHg 15%
    10:00 +36°C° 0 mm 6 mps 731 mmHg 14%
    11:00 +39°C° 0 mm 6 mps 731 mmHg 13%
    12:00 +40°C° 0 mm 7 mps 731 mmHg 13%
    13:00 +40°C° 0 mm 7 mps 730 mmHg 12%
    14:00 +41°C° 0 mm 7 mps 730 mmHg 12%
    15:00 +40°C° 0 mm 7 mps 730 mmHg 13%
    16:00 +39°C° 0 mm 6 mps 729 mmHg 13%
    17:00 +39°C° 0 mm 6 mps 729 mmHg 14%
    18:00 +36°C° 0 mm 5 mps 729 mmHg 17%
    19:00 +33°C° 0 mm 3 mps 729 mmHg 19%
    20:00 +30°C° 0 mm 2 mps 730 mmHg 22%
    21:00 +29°C° 0 mm 2 mps 729 mmHg 23%
    22:00 +29°C° 0 mm 1 mps 729 mmHg 23%
    23:00 +28°C° 0 mm 1 mps 729 mmHg 24%

    2 June, Tuesday

    Time Temperature Precipitation Wind Pressure Humidity
    00:00 +27°C° 0 mm 1 mps 729 mmHg 24%
    01:00 +27°C° 0 mm 1 mps 729 mmHg 24%
    02:00 +27°C° 0 mm 1 mps 728 mmHg 25%
    03:00 +27°C° 0 mm 1 mps 728 mmHg 25%
    04:00 +27°C° 0 mm 1 mps 728 mmHg 25%
    05:00 +27°C° 0 mm 2 mps 728 mmHg 25%
    06:00 +30°C° 0 mm 2 mps 729 mmHg 21%
    07:00 +33°C° 0 mm 3 mps 729 mmHg 18%
    08:00 +36°C° 0 mm 3 mps 730 mmHg 14%
    09:00 +38°C° 0 mm 4 mps 730 mmHg 14%
    10:00 +40°C° 0 mm 5 mps 730 mmHg 13%
    11:00 +41°C° 0 mm 5 mps 730 mmHg 13%
    12:00 +42°C° 0 mm 6 mps 729 mmHg 12%
    13:00 +44°C° 0 mm 6 mps 729 mmHg 11%
    14:00 +44°C° 0 mm 6 mps 729 mmHg 11%
    15:00 +44°C° 0 mm 6 mps 728 mmHg 11%
    16:00 +42°C° 0 mm 6 mps 728 mmHg 11%
    17:00 +42°C° 0 mm 6 mps 727 mmHg 11%
    18:00 +39°C° 0 mm 5 mps 728 mmHg 14%
    19:00 +36°C° 0 mm 4 mps 728 mmHg 17%
    20:00 +33°C° 0 mm 3 mps 728 mmHg 20%
    21:00 +31°C° 0 mm 3 mps 728 mmHg 21%
    22:00 +30°C° 0 mm 4 mps 729 mmHg 22%
    23:00 +29°C° 0 mm 4 mps 729 mmHg 24%

    3 June, Wednesday

    Time Temperature Precipitation Wind Pressure Humidity
    00:00 +28°C° 0 mm 4 mps 729 mmHg 26%
    01:00 +27°C° 0 mm 4 mps 728 mmHg 28%
    02:00 +27°C° 0 mm 3 mps 728 mmHg 30%
    03:00 +26°C° 0 mm 3 mps 728 mmHg 30%
    04:00 +26°C° 0 mm 2 mps 728 mmHg 29%
    05:00 +25°C° 0 mm 2 mps 729 mmHg 29%
    06:00 +28°C° 0 mm 2 mps 729 mmHg 25%
    07:00 +31°C° 0 mm 3 mps 730 mmHg 21%
    08:00 +34°C° 0 mm 3 mps 730 mmHg 17%
    09:00 +36°C° 0 mm 4 mps 730 mmHg 15%
    10:00 +37°C° 0 mm 4 mps 730 mmHg 14%
    11:00 +40°C° 0 mm 4 mps 730 mmHg 12%
    12:00 +41°C° 0 mm 5 mps 730 mmHg 11%
    13:00 +41°C° 0 mm 6 mps 729 mmHg 11%
    14:00 +43°C° 0 mm 7 mps 729 mmHg 10%
    15:00 +43°C° 0 mm 7 mps 729 mmHg 11%
    16:00 +41°C° 0 mm 6 mps 729 mmHg 11%
    17:00 +40°C° 0 mm 6 mps 728 mmHg 12%
    18:00 +37°C° 0 mm 5 mps 728 mmHg 14%
    19:00 +35°C° 0 mm 4 mps 729 mmHg 16%
    20:00 +31°C° 0 mm 3 mps 729 mmHg 18%
    21:00 +31°C° 0 mm 3 mps 729 mmHg 19%
    22:00 +30°C° 0 mm 2 mps 729 mmHg 19%
    23:00 +30°C° 0 mm 2 mps 729 mmHg 20%
    Show more